| time (UTC) | temp F | wind direction | speed MPH | gust MPH | rain 1hr in | rain 24hr in | rain mn in | humidity % | barometer mb |
| 20260505090115 | 68 | 125 | 1.0 | 0.0 | 0.00 | 0.00 | 0.00 | 82 | 1006.4 |
| 20260505083109 | 68 | 155 | 1.0 | 0.0 | 0.00 | 0.00 | 0.00 | 81 | 1006.6 |
| 20260505081650 | 68 | 122 | 1.0 | 0.0 | 0.00 | 0.00 | 0.00 | 81 | 1006.8 |
| 20260505074632 | 69 | 172 | 1.0 | 0.0 | 0.00 | 0.00 | 0.00 | 81 | 1006.8 |
| 20260505073024 | 69 | 167 | 2.0 | 0.0 | 0.00 | 0.00 | 0.00 | 81 | 1006.8 |
| 20260505071615 | 69 | 163 | 2.0 | 0.0 | 0.00 | 0.00 | 0.00 | 80 | 1007.0 |
| 20260505064559 | 69 | 173 | 2.0 | 0.0 | 0.00 | 0.00 | 0.00 | 80 | 1007.3 |
| 20260505063059 | 69 | 126 | 3.0 | 0.0 | 0.00 | 0.00 | 0.00 | 80 | 1007.4 |
| 20260505060037 | 69 | 171 | 3.0 | 0.0 | 0.00 | 0.00 | 0.00 | 80 | 1007.4 |
| 20260505041604 | 70 | 178 | 3.0 | 0.0 | 0.00 | 0.00 | 0.00 | 76 | 1008.0 |
| 20260505033028 | 70 | 157 | 3.0 | 0.0 | 0.00 | 0.00 | 0.00 | 75 | 1007.9 |
| 20260505031520 | 71 | 167 | 2.0 | 0.0 | 0.00 | 0.00 | 0.00 | 74 | 1008.1 |
| 20260505023002 | 72 | 167 | 2.0 | 0.0 | 0.00 | 0.00 | 0.00 | 71 | 1008.0 |
| 20260505013041 | 74 | 147 | 2.0 | 0.0 | 0.00 | 0.00 | 0.00 | 66 | 1007.6 |
| 20260505010047 | 75 | 249 | 2.0 | 0.0 | 0.00 | 0.00 | 0.00 | 63 | 1007.3 |
| 20260504231540 | 81 | 209 | 3.0 | 0.0 | 0.00 | 0.00 | 0.00 | 53 | 1007.9 |
| 20260504230039 | 82 | 128 | 2.0 | 0.0 | 0.00 | 0.00 | 0.00 | 52 | 1007.9 |
| 20260504224521 | 83 | 146 | 4.0 | 0.0 | 0.00 | 0.00 | 0.00 | 50 | 1008.1 |
| 20260504221515 | 83 | 213 | 5.0 | 0.0 | 0.00 | 0.00 | 0.00 | 47 | 1008.5 |
| 20260504214542 | 85 | 130 | 3.0 | 0.0 | 0.00 | 0.00 | 0.00 | 46 | 1008.5 |
| 20260504210019 | 85 | 214 | 3.0 | 0.0 | 0.00 | 0.00 | 0.00 | 46 | 1009.3 |
| 20260504203104 | 85 | 161 | 3.0 | 0.0 | 0.00 | 0.00 | 0.00 | 45 | 1009.7 |
| 20260504194604 | 83 | 179 | 4.0 | 0.0 | 0.00 | 0.00 | 0.00 | 45 | 1010.4 |
| 20260504193014 | 83 | 228 | 5.0 | 0.0 | 0.00 | 0.00 | 0.00 | 44 | 1010.7 |
| 20260504174617 | 80 | 136 | 4.0 | 0.0 | 0.00 | 0.00 | 0.00 | 44 | 1012.3 |
| 20260504173002 | 79 | 192 | 4.0 | 0.0 | 0.00 | 0.00 | 0.00 | 47 | 1012.4 |
| 20260504110117 | 56 | 175 | 0.0 | 0.0 | 0.00 | 0.00 | 0.00 | 80 | 1013.6 |